Skip Page Navigation
NASA JPL Caltech
NASA Logo - Jet Propulsion Laboratory + View the NASA Portal
+ Near-Earth Object (NEO) Program
Search JPL
JPL Home Earth Solar System Stars & Galaxies Technology
JPL Solar System Dynamics
BODIES ORBITS EPHEMERIDES TOOLS PHYSICAL DATA DISCOVERY FAQ SITE MAP
JPL Small-Body Database Browser
Search: [ help ]  
2542 Calpurnia (1980 CF)
Classification: Main-belt Asteroid          SPK-ID: 2002542
Ephemeris | Orbit Diagram | Orbital Elements | Physical Parameters | Discovery Circumstances | Close-Approach Data ]

[ show orbit diagram ]
Orbital Elements at Epoch 2457000.5 (2014-Dec-09.0) TDB
Reference: JPL 14 (heliocentric ecliptic J2000)
 Element Value Uncertainty (1-sigma)   Units 
e .07361799268562326 5.3718e-08  
a 3.131167162141365 2.7564e-08 AU
q 2.900656920901378 1.6866e-07 AU
i 4.620736958317081 5.3371e-06 deg
node 145.7211093775479 7.1438e-05 deg
peri 47.41046102683632 8.1439e-05 deg
M 71.59879713160342 3.6576e-05 deg
tp 2456598.004496638671
(2013-Nov-01.50449664)
0.00020733 JED
period 2023.754406708057
5.54
2.6723e-05
7.316e-08
d
yr
n .177887197580261 2.3489e-09 deg/d
Q 3.361677403381352 2.9593e-08 AU
  Orbit Determination Parameters
   # obs. used (total)      1340  
   data-arc span      21967 days (60.14 yr)  
   first obs. used      1954-07-03  
   last obs. used      2014-08-24  
   planetary ephem.      DE431  
   SB-pert. ephem.      SB431-BIG16  
   condition code      0  
   fit RMS      .46957  
   data source      ORB  
   producer      Otto Matic  
   solution date      2014-Oct-09 13:54:40  

Additional Information
 Earth MOID = 1.90421 AU 
 T_jup = 3.204 
[ show covariance matrix ]

Ephemeris | Orbit Diagram | Orbital Elements | Physical Parameters | Discovery Circumstances | Close-Approach Data ]

Physical Parameter Table
Parameter Symbol Value Units Sigma Reference Notes
absolute magnitude H 11.6 mag n/a MPO309166  
diameter diameter 27.61 km 2.3 IRAS-A-FPA-3-RDR-IMPS-V6.0 IRAS observations used: 3
geometric albedo albedo 0.0639   0.012 IRAS-A-FPA-3-RDR-IMPS-V6.0 IRAS observations used: 3

2542 Calpurnia (1980 CF)          Discovered 1980-Feb-11 by Bowell, E. at Flagstaff (AM) (688)
Discovered at the Anderson Mesa station, which is operated by the Lowell Observatory.
Reference: DISCOVERY.DBLast Updated: 2003-08-29

[ show close-approach data ]
Alternate Designations
 1980 CF = 1972 XN2 = 1976 OE 
Ephemeris | Orbit Diagram | Orbital Elements | Physical Parameters | Discovery Circumstances | Close-Approach Data ]
ABOUT SSD CREDITS/AWARDS PRIVACY/COPYRIGHT GLOSSARY LINKS
FirstGov 2014-Oct-26 05:58 UT
(server date/time)  
NASA Home Page
Site Manager:   Donald K. Yeomans
Webmaster  Alan B. Chamberlin